Regional Weather Roundup
Issued by NWS Mt. Holly, NJ

Current Version | Previous Version | Text Only | Print | Product List | Glossary On
Versions: 1 2 3 4 5 6 7 8 9 10 11 12 13 14 15 16 17 18 19 20 21 22 23 24 25 26 27
000
ASUS41 KPHI 040611
RWRPHI

REGIONAL WEATHER ROUNDUP
NATIONAL WEATHER SERVICE MOUNT HOLLY NJ
200 AM EDT TUE OCT 04 2022

NOTE:  "FAIR" INDICATES FEW OR NO CLOUDS BELOW 12,000 FEET WITH NO
SIGNIFICANT WEATHER AND/OR OBSTRUCTIONS TO VISIBILITY.

 * = STATION DOES NOT REPORT PRECIPITATION (E.G. RAIN, SNOW, ETC.)
        OR FOG.

NJZ015>026-040700-
SOUTHERN NEW JERSEY

CITY           SKY/WX    TMP DP  RH WIND       PRES   REMARKS
POMONA         CLOUDY    48  46  93 N14G26    29.99F FOG
6HR MIN TEMP:  48; 6HR MAX TEMP:  49; 6HR PCP:  0.08;

WILDWOOD*      LGT RAIN  48  47  96 N15G23    30.00F FOG
MILLVILLE      CLOUDY    47  45  93 N15       30.03F
WRIGHTSTOWN    CLOUDY    47  46  96 N14       30.05F
MOUNT HOLLY    CLOUDY    48  45  89 N13       30.06F
TRENTON        LGT RAIN  45  43  93 N10G20    30.08F FOG
6HR MIN TEMP:  45; 6HR MAX TEMP:  47; 6HR PCP:  0.28;


$$
NJZ001>014-040700-
NORTHERN NEW JERSEY

CITY           SKY/WX    TMP DP  RH WIND       PRES   REMARKS
SUSSEX         CLOUDY    51  38  60 VRB7      30.12F
ANDOVER*         N/A     48  44  86 CALM      30.11F
MORRISTOWN     DRIZZLE   46  43  87 N5        30.10S
NEWARK         RAIN      45  43  93 N14       30.09F
TETERBORO      LGT RAIN  47  41  80 N10       30.09F
CALDWELL       LGT RAIN  48  41  76 NE6       30.11F
SOMERVILLE     LGT RAIN  47  45  93 NW3       30.09S FOG
ALLAIRE*       LGT RAIN  48  50 100 N14G22    30.06F

$$
PAZ043-044-047-054-055-060>062-066>071-040700-
EASTERN PENNSYLVANIA

CITY           SKY/WX    TMP DP  RH WIND       PRES   REMARKS
PHILADELPHIA   RAIN      49  45  86 N15       30.08F FOG
6HR MIN TEMP:  49; 6HR MAX TEMP:  50; 6HR PCP:  0.05;

NORTH PHILA    LGT RAIN  47  43  86 N18       30.10F
BLUE BELL*     DRIZZLE   46  44  93 N9        30.11F
DOYLESTOWN     CLOUDY    46  42  86 N8        30.10F
QUAKERTOWN*    CLOUDY    46  45  93 N8G15     30.11F
PERKASIE*      LGT RAIN  45  45 100 N7        30.11F
POTTSTOWN      LGT RAIN  45  41  86 N7        30.14F
LANCASTER      CLOUDY    49  43  80 NE9G16    30.14F
COATESVILLE    LGT RAIN  45  43  93 N12G17    30.12F
READING        CLOUDY    48  46  93 N3        30.14F
6HR MIN TEMP:  47; 6HR MAX TEMP:  50; 6HR PCP:  0.10;

ALLENTOWN      LGT RAIN  46  41  82 N6        30.13F
6HR MIN TEMP:  46; 6HR MAX TEMP:  49; 6HR PCP:  0.16;

QN CITY/ALNTWN RAIN      46  43  87 N5        30.14F
MOUNT POCONO   LGT RAIN  42  37  82 N14       30.11F
6HR MIN TEMP:  42; 6HR MAX TEMP:  45; 6HR PCP:  0.06;

HAZLETON       RAIN      45  39  81 N3        30.18F
LEHIGHTON      LGT RAIN  46  43  87 CALM      30.16F
WILKES BARRE   CLOUDY    47  43  86 CALM      30.16S

$$
DEZALL-MDZ008-012-015-019-020-040700-
DELAWARE AND EASTERN MARYLAND

CITY           SKY/WX    TMP DP  RH WIND       PRES   REMARKS
WILMINGTON     RAIN      47  44  90 N15G26    30.10F FOG
6HR MIN TEMP:  47; 6HR MAX TEMP:  48; 6HR PCP:  0.13;

DOVER          LGT RAIN  48  46  93 NW21G31   30.03F
CHESWOLD       CLOUDY    46  46 100 N10G20    30.06F FOG
GEORGETOWN     RAIN      49  47  93 N12G22    30.02F FOG
6HR MIN TEMP:  49; 6HR MAX TEMP:  50; 6HR PCP:  0.14;

PATUXENT       CLOUDY    52  48  86 N14G22    30.06F
OCEAN CITY     CLOUDY    49  49 100 N17G24    29.96F
WALLOPS ISLAND LGT RAIN  49  46  90 N14G22    29.97F
CAMBRIDGE      CLOUDY    46  46 100 N16G28    30.05F FOG
SALISBURY      CLOUDY    49  46  90 N18G24    30.00F

$$
PAZ001-021-NYZ056-072-MDZ011-DCZ001-040700-
OTHER NEARBY LOCATIONS

CITY           SKY/WX    TMP DP  RH WIND       PRES   REMARKS
HARRISBURG     LGT RAIN  48  46  93 NW6       30.15F
STATE COLLEGE  MOCLDY    46  40  79 CALM      30.19F
WILLIAMSPORT   RAIN      49  43  80 W5        30.19R
BINGHAMTON     CLOUDY    44  38  79 NE6       30.19F
NEW YORK CITY  HVY RAIN  46  43  89 VRB7G16   30.11F FOG
BALTIMORE      LGT RAIN  48  45  89 N8        30.11F
WASHINGTON DC  LGT RAIN  49  46  90 N14       30.13F

$$



USA.gov is the U.S. government's official web portal to all federal, state and local government web resources and services.